Location: Bucquoy
(50.1391°N, 2.7097°E)
Time: 16:34:16
(UTC+00:00)

Cosmos 1461 - Visible Passes

Search period start: 25 September 2021 00:00
Search period end: 05 October 2021 00:00
Orbit: 518 x 644 km, 65.0° (Epoch: 24 September)

Date Brightness Start Highest point End Pass type
(mag) Time Alt. Az. Time Alt. Az. Time Alt. Az.
27 Sep 5.2 18:09:38 10° WNW 18:12:56 25° WSW 18:16:08 10° S visible
28 Sep 5.7 18:15:23 10° WNW 18:17:52 16° WSW 18:20:20 10° SSW visible
29 Sep 6.4 18:22:22 10° WSW 18:22:46 10° WSW 18:23:09 10° WSW visible
